Showing default

BRITE-PL 2, 40119

Orbit data source: Space-Track

BRITE-PL 2, 40119 is a payload satellite owned by CBK (PL) in SSO that was launched on Tue, 19 Aug 2014 UTC via a CHANG ZHENG 4B launch vehicle from the Taiyaun Space Center, China (TSC). Payloads include a variety of satellites, spacecraft, and rockets equipped with specific instruments for various scientific and technological missions. These include communications satellites like Starlink; space stations such as the ISS; scientific satellites like the Hubble; Earth observation satellites from companies like Planet Labs, Umbra, and HawkEye 360; GPS; miniature CubeSats for education and research; and military/defense satellites.

Loading next visibility...
BRITE-PL 2 details
Identifier
40119, 2014-049B
Orbit
SSO
Last TLE update22 hours ago
Origin
Flag of PLCBK (PL / POL)
ManufacturerCBKPL/UTIAS
MissionOperational Civil Astronomy
Bus & MotorGNB, Unknown motor
Mass6.8 kg wet, 6.8 kg dry
Launch date (UTC)
2014-08-19 (10 years ago)
Launch vehicle
CHANG ZHENG 4B
Launch site
Taiyaun Space Center, China (TSC)
Object type
Payload
Rocket body
Debris
Shape & HBRBox, 0.2 m
Radar Cross Section0.060 m², Medium (>0.1 m² and < 1m²)

Expand to show TLE details & history

TLE from 22 hours ago
0 BRITE-PL 2
1 40119U 14049B   24360.55608937  .00005988  00000-0  60868-3 0  9992
2 40119  97.8863  99.7037 0016361  93.9204 266.3885 14.91072445561161
Epoch: 2024-12-25T13:20Z
Definitive object data (Epoch: 2024-12-25T13:20:46.121Z)
Latitude-0.00001°
Longitude164.96339°
Altitude598.365 km
Speed7.56 km/s
True Right ascension06h 38m 48s
True Declination0° 00' 00"
Sunlit
Object was in full shadow at TLE epoch
Visualization TLE readout
Latitude-35.26913°
Longitude171.48676°
Altitude614.677 km
Speed7.547 km/s
Apparent Right ascension03h 35m 28s
Apparent Declination-56° 26' 25"
Sunlit
Object is in full shadow
Visualization observer readout
Local Sidereal Time11:05:30
Azimuth225.415° WSW
Elevation-44.188°
Doppler factor1
Orbital elements
Apogee altitude603.019 km
Perigee altitude580.213 km
Semi-major axis6,969.753 km
Eccentricity0.0016361
Inclination97.8863°
RAAN99.7037°
Arg. of periapsis93.9204°
True anomaly266.20141°
Mean anomaly266.3885°
Eccentric anomaly266.29495°
Mean motion3.73007 °/min
BSTAR0.00060868
Orbital period96.51 mins
Loading maneuver chart data...
Loading historical data...
Loading historical data...
Loading historical data...
Loading historical data...
Loading historical data...
Loading historical data...
Loading historical data...
Other satellites on launch #49 in the year 2014 (2014-08-19 UTC)

BRITE-PL 2 Visibility forecast

Observer location: undefined°, undefined

Span
Click to sort rows by Start time (UTC) header in descending order
Start Az.
Max El. time (UTC)
Max El. Az.
Max El.
End time (UTC)
End Az.
6 mins2024-12-26 18:55:06.147Z46.096° ENE2024-12-26 18:58:06.147Z98.882° ESE21.486°2024-12-26 19:01:06.147Z147.593° SSE
5 mins2024-12-26 20:31:06.147Z337.265° NNW2024-12-26 20:33:06.147Z300.264° NW23.611°2024-12-26 20:36:06.147Z241.235° WSW
6 mins2024-12-27 07:21:06.147Z199.822° SSW2024-12-27 07:24:06.147Z274.957° WNW32.018°2024-12-27 07:27:06.147Z328.641° NNW
|